COSMOS 2251 DEB, 38064

Orbit data source: Space-Track

COSMOS 2251 DEB, 38064 is space debris in LEO originally from a launch on Wed, 16 Jun 1993 UTC launched from the Plesetsk Missile And Space Complex (PKMTR). The debris from Iridium 33, an American commercial communications satellite, has been tracked extensively since its accidental collision with the defunct Russian satellite Cosmos 2251 in 2009. This event, occurring at high speed in low Earth orbit (LEO), generated thousands of pieces of space debris, significantly increasing the risk of further collisions. The Iridium 33 debris cloud has impacted space traffic management and orbital debris mitigation strategies, making it a subject of ongoing study in space situational awareness.

Loading next visibility...
Identifier
38064, 1993-036BRW
Orbit
LEO
Country
Flag of CISCIS
Related business
Manufacturer
Unknown
Mission
Spacecraft
Bus & Motor
Unknown
Mass
Unknown
Launch date (UTC)
1993-06-16 (33 years ago)
Launch vehicle
Unknown
Launch site
Plesetsk Missile And Space Complex (PKMTR)
Object type
Payload
Rocket body
Debris
Shape & HBR
Unknown shape, 0.1 m
Radar Cross Section
Small (<0.1 m²)

Expand to show TLE details & history
Last TLE update: 22 hours ago

TLE from 22 hours ago
0 COSMOS 2251 DEB
1 38064U 93036BRW 26120.52670403  .00002452  00000-0  53977-3 0  9997
2 38064  74.0228 220.3911 0047200 304.5327  55.1386 14.57326534738861
Epoch: 2026-04-30T12:38Z
TLE epoch observation values (Epoch: 2026-04-30T12:38:27.228Z)
Latitude
0.00006°
Longitude
172.30563°
Altitude
685.458 km
Speed
7.524 km/s
True Right ascension
14h 41m 33s
True Declination
0° 00' 00"
Sunlit
Object was in full shadow at epoch
Visualization orbit readout
Latitude
Unknown
Longitude
Unknown
Altitude
Unknown
Speed
Unknown
Apparent Right ascension
Unknown
Apparent Declination
Unknown
Sunlit
N/A
Visualization observer readout
Local Sidereal Time
18:33:47
Azimuth
Unknown
Elevation
Unknown
Doppler factor
Unknown
Orbital elements
Apogee altitude
732.827 km
Perigee altitude
666.015 km
Semi-major axis
7,077.558 km
Eccentricity
0.00472
Inclination
74.0228°
RAAN
220.3911°
Arg. of periapsis
304.5327°
True anomaly
55.5839°
Mean anomaly
55.1386°
Eccentric anomaly
55.3611°
Mean motion
3.64517 °/min
Orbital period
98.76 mins
BSTAR
0.00053977
Loading maneuver chart data...
Computing Atmospheric mass density...

Documentation

Showing up to 5 results
|